User: anonymous   Login
Location: Newark
(42.5998°N, 13.2232°E)
Time: 19:23:59
(UTC+00:00)
Language:

VELOX 1 - Orbit

View from above orbital plane
View from above orbital plane
View from above satellite
View from above satellite

Ground track
Ground track

The orbit data is extracted from the following two-line orbital elements,

1 40057U 14034E   20101.52370798  .00000259  00000-0  43673-4 0  9996
2 40057  98.2675 236.6693 0010922  10.7478 349.3959 14.77835411311605
Epoch (UTC): 10 April 2020 12:34:08
Eccentricity: 0.0010922
inclination: 98.2675°
perigee height: 628 km
apogee height: 644 km
right ascension of ascending node: 236.6693°
argument of perigee: 10.7478°
revolutions per day: 14.77835411
mean anomaly at epoch: 349.3959°
orbit number at epoch: 31160

The dashed part of the orbit path shows where the satellite is in the earth's shadow,  

DLR